TimeCST,TemperatureF,Dew PointF,Humidity,Sea Level PressureIn,VisibilityMPH,Wind Direction,Wind SpeedMPH,Gust SpeedMPH,PrecipitationIn,Events,Conditions,WindDirDegrees,DateUTC
12:15 AM,37.4,30.2,75,30.14,10.0,Calm,Calm,-,N/A,,Clear,0,2014-01-12 06:15:00
12:35 AM,37.4,30.2,75,30.13,10.0,Calm,Calm,-,N/A,,Clear,0,2014-01-12 06:35:00
12:55 AM,37.4,30.2,75,30.13,10.0,Calm,Calm,-,N/A,,Clear,0,2014-01-12 06:55:00
1:15 AM,37.4,30.2,75,30.12,10.0,North,5.8,-,N/A,,Clear,350,2014-01-12 07:15:00
1:35 AM,37.4,30.2,75,30.12,10.0,North,4.6,-,N/A,,Clear,350,2014-01-12 07:35:00
1:55 AM,37.4,30.2,75,30.12,10.0,Calm,Calm,-,N/A,,Clear,0,2014-01-12 07:55:00
2:15 AM,35.6,30.2,81,30.11,10.0,Calm,Calm,-,N/A,,Clear,0,2014-01-12 08:15:00
2:35 AM,35.6,30.2,81,30.11,10.0,Calm,Calm,-,N/A,,Clear,0,2014-01-12 08:35:00
2:55 AM,35.6,30.2,81,30.10,10.0,Calm,Calm,-,N/A,,Clear,0,2014-01-12 08:55:00
3:15 AM,35.6,30.2,81,30.10,10.0,North,4.6,-,N/A,,Clear,350,2014-01-12 09:15:00
3:35 AM,35.6,30.2,81,30.10,10.0,Calm,Calm,-,N/A,,Clear,0,2014-01-12 09:35:00
3:55 AM,35.6,30.2,81,30.10,10.0,Calm,Calm,-,N/A,,Clear,0,2014-01-12 09:55:00
4:15 AM,35.6,30.2,81,30.09,10.0,Calm,Calm,-,N/A,,Clear,0,2014-01-12 10:15:00
4:35 AM,35.6,30.2,81,30.08,10.0,Calm,Calm,-,N/A,,Clear,0,2014-01-12 10:35:00
4:55 AM,37.4,30.2,75,30.09,10.0,Calm,Calm,-,N/A,,Clear,0,2014-01-12 10:55:00
5:15 AM,37.4,30.2,75,30.09,10.0,Calm,Calm,-,N/A,,Clear,0,2014-01-12 11:15:00
5:35 AM,33.8,30.2,87,30.08,10.0,Calm,Calm,-,N/A,,Clear,0,2014-01-12 11:35:00
5:55 AM,35.6,30.2,81,30.08,10.0,Calm,Calm,-,N/A,,Clear,0,2014-01-12 11:55:00
6:15 AM,33.8,30.2,87,30.08,10.0,Calm,Calm,-,N/A,,Clear,0,2014-01-12 12:15:00
6:35 AM,33.8,30.2,87,30.07,10.0,Calm,Calm,-,N/A,,Clear,0,2014-01-12 12:35:00
6:55 AM,32.0,28.4,87,30.07,10.0,Calm,Calm,-,N/A,,Clear,0,2014-01-12 12:55:00
7:15 AM,32.0,28.4,87,30.08,10.0,Calm,Calm,-,N/A,,Clear,0,2014-01-12 13:15:00
7:35 AM,33.8,30.2,87,30.08,10.0,Calm,Calm,-,N/A,,Clear,0,2014-01-12 13:35:00
7:55 AM,32.0,30.2,93,30.09,10.0,Calm,Calm,-,N/A,,Clear,0,2014-01-12 13:55:00
8:15 AM,35.6,32.0,87,30.10,10.0,Calm,Calm,-,N/A,,Clear,0,2014-01-12 14:15:00
8:35 AM,44.6,33.8,66,30.11,10.0,South,4.6,-,N/A,,Clear,190,2014-01-12 14:35:00
8:55 AM,53.6,32.0,44,30.11,10.0,South,6.9,-,N/A,,Clear,190,2014-01-12 14:55:00
9:15 AM,57.2,33.8,41,30.11,10.0,SSW,10.4,-,N/A,,Clear,200,2014-01-12 15:15:00
9:35 AM,60.8,33.8,36,30.11,10.0,South,11.5,18.4,N/A,,Clear,190,2014-01-12 15:35:00
9:55 AM,62.6,33.8,34,30.12,10.0,SSW,16.1,19.6,N/A,,Clear,200,2014-01-12 15:55:00
10:15 AM,64.4,32.0,30,30.11,10.0,SSW,13.8,18.4,N/A,,Clear,200,2014-01-12 16:15:00
10:35 AM,66.2,33.8,30,30.11,10.0,SSW,15.0,23.0,N/A,,Clear,200,2014-01-12 16:35:00
10:55 AM,66.2,33.8,30,30.10,10.0,South,11.5,18.4,N/A,,Clear,190,2014-01-12 16:55:00
11:15 AM,68.0,35.6,30,30.08,10.0,SSW,16.1,20.7,N/A,,Clear,210,2014-01-12 17:15:00
11:35 AM,66.2,37.4,35,30.08,10.0,SSW,12.7,19.6,N/A,,Clear,210,2014-01-12 17:35:00
11:55 AM,66.2,37.4,35,30.06,10.0,SSW,13.8,18.4,N/A,,Clear,210,2014-01-12 17:55:00
12:15 PM,66.2,39.2,37,30.04,10.0,SSW,9.2,-,N/A,,Clear,200,2014-01-12 18:15:00
12:35 PM,69.8,41.0,35,30.02,10.0,SSW,12.7,-,N/A,,Clear,200,2014-01-12 18:35:00
12:55 PM,69.8,42.8,38,30.00,10.0,South,8.1,-,N/A,,Clear,180,2014-01-12 18:55:00
1:15 PM,69.8,44.6,40,29.98,10.0,SW,19.6,23.0,N/A,,Clear,220,2014-01-12 19:15:00
1:35 PM,68.0,46.4,46,29.97,10.0,SSW,17.3,21.9,N/A,,Clear,200,2014-01-12 19:35:00
1:55 PM,69.8,46.4,43,29.96,10.0,SSW,16.1,24.2,N/A,,Clear,200,2014-01-12 19:55:00
2:15 PM,69.8,46.4,43,29.96,10.0,SSW,17.3,21.9,N/A,,Partly Cloudy,210,2014-01-12 20:15:00
2:35 PM,71.6,44.6,38,29.94,10.0,SW,15.0,-,N/A,,Partly Cloudy,220,2014-01-12 20:35:00
2:55 PM,73.4,44.6,36,29.93,10.0,SSW,16.1,20.7,N/A,,Clear,210,2014-01-12 20:55:00
3:15 PM,69.8,44.6,40,29.93,10.0,South,17.3,21.9,N/A,,Clear,190,2014-01-12 21:15:00
3:35 PM,69.8,42.8,38,29.92,10.0,SSW,16.1,23.0,N/A,,Clear,200,2014-01-12 21:35:00
3:55 PM,69.8,42.8,38,29.92,10.0,SSW,17.3,25.3,N/A,,Clear,200,2014-01-12 21:55:00
4:15 PM,69.8,42.8,38,29.91,10.0,SSW,12.7,25.3,N/A,,Clear,200,2014-01-12 22:15:00
4:35 PM,68.0,44.6,43,29.92,10.0,South,11.5,-,N/A,,Clear,190,2014-01-12 22:35:00
4:55 PM,66.2,44.6,46,29.91,10.0,South,8.1,-,N/A,,Clear,190,2014-01-12 22:55:00
5:15 PM,66.2,46.4,49,29.92,10.0,South,8.1,-,N/A,,Clear,190,2014-01-12 23:15:00
5:35 PM,66.2,46.4,49,29.92,10.0,SSW,10.4,-,N/A,,Clear,200,2014-01-12 23:35:00
5:55 PM,64.4,46.4,52,29.92,10.0,SSW,8.1,-,N/A,,Clear,210,2014-01-12 23:55:00
6:15 PM,64.4,46.4,52,29.91,10.0,South,8.1,-,N/A,,Clear,190,2014-01-13 00:15:00
6:35 PM,64.4,48.2,56,29.92,10.0,SSW,8.1,-,N/A,,Clear,210,2014-01-13 00:35:00
6:55 PM,62.6,48.2,59,29.93,10.0,South,4.6,-,N/A,,Clear,180,2014-01-13 00:55:00
7:15 PM,60.8,48.2,63,29.92,10.0,Calm,Calm,-,N/A,,Clear,0,2014-01-13 01:15:00
7:35 PM,62.6,50.0,63,29.92,10.0,SSE,5.8,-,N/A,,Clear,160,2014-01-13 01:35:00
7:55 PM,62.6,51.8,68,29.91,10.0,Calm,Calm,-,N/A,,Clear,0,2014-01-13 01:55:00
8:15 PM,62.6,51.8,68,29.91,10.0,SSW,5.8,-,N/A,,Clear,200,2014-01-13 02:15:00
8:35 PM,62.6,51.8,68,29.91,10.0,Calm,Calm,-,N/A,,Clear,0,2014-01-13 02:35:00
8:55 PM,60.8,51.8,72,29.92,10.0,Calm,Calm,-,N/A,,Clear,0,2014-01-13 02:55:00
9:15 PM,57.2,50.0,77,29.93,10.0,Calm,Calm,-,N/A,,Clear,0,2014-01-13 03:15:00
9:35 PM,55.4,50.0,82,29.93,10.0,Calm,Calm,-,N/A,,Clear,0,2014-01-13 03:35:00
9:55 PM,57.2,50.0,77,29.93,10.0,Calm,Calm,-,N/A,,Clear,0,2014-01-13 03:55:00
10:15 PM,57.2,51.8,82,29.93,10.0,Calm,Calm,-,N/A,,Clear,0,2014-01-13 04:15:00
10:35 PM,60.8,51.8,72,29.93,10.0,SSW,5.8,-,N/A,,Clear,200,2014-01-13 04:35:00
10:55 PM,60.8,53.6,77,29.93,10.0,South,5.8,-,N/A,,Clear,180,2014-01-13 04:55:00
11:15 PM,60.8,53.6,77,29.92,10.0,South,4.6,-,N/A,,Clear,190,2014-01-13 05:15:00
11:35 PM,62.6,53.6,72,29.91,10.0,South,4.6,-,N/A,,Clear,190,2014-01-13 05:35:00
11:55 PM,60.8,55.4,82,29.90,10.0,South,4.6,-,N/A,,Clear,170,2014-01-13 05:55:00